Location: Unspecified
(0.0000°N, 0.0000°E)
Time: 11:57:24
(UTC+01:00)

ASC 2 Rocket - Visible Passes

Search period start: 17 January 2017 00:00
Search period end: 27 January 2017 00:00
Orbit: 556 x 2345 km, 24.0° (Epoch: 17 January)

Date Brightness Start Highest point End Pass type
(mag) Time Alt. Az. Time Alt. Az. Time Alt. Az.
17 Jan 6.6 03:58:20 29° NNE 03:58:20 29° NNE 04:06:23 10° ENE visible
17 Jan 5.8 05:53:08 19° NW 06:02:41 51° NNE 06:11:42 10° E visible
17 Jan 5.0 20:19:38 10° W 20:26:38 59° NNW 20:33:14 24° NE visible
17 Jan 6.4 22:23:29 10° WNW 22:28:03 25° NW 22:28:03 25° NW visible
18 Jan 7.3 02:56:02 15° NE 02:56:02 15° NE 02:58:02 10° ENE visible
18 Jan 6.1 04:50:50 36° NNW 04:54:36 42° NNE 05:04:48 10° E visible
18 Jan 5.7 21:16:43 10° W 21:24:03 36° NNW 21:25:49 34° N visible
19 Jan 6.5 03:48:33 33° NE 03:48:33 33° NE 03:57:09 10° ENE visible
19 Jan 5.6 05:43:21 24° NW 05:52:24 64° NNE 06:02:15 10° ESE visible
19 Jan 5.2 20:10:28 10° W 20:16:46 43° NNW 20:23:34 18° NE visible
19 Jan 6.5 22:14:41 10° WNW 22:18:23 21° NW 22:18:23 21° NW visible
20 Jan 7.3 02:46:16 16° ENE 02:46:16 16° ENE 02:48:38 10° ENE visible
20 Jan 6.0 04:41:05 45° NNW 04:44:14 51° NNE 04:55:22 10° E visible
20 Jan 5.4 06:36:17 10° WNW 06:49:38 82° SSW 06:58:46 10° ESE visible
20 Jan 5.9 21:07:55 10° WNW 21:14:18 27° NNW 21:16:10 26° N visible
21 Jan 6.4 03:38:48 38° NE 03:38:48 38° NE 03:47:41 10° E visible
21 Jan 5.6 05:33:37 30° NW 05:41:54 78° NNE 05:52:33 10° ESE visible
21 Jan 5.5 20:01:34 10° WNW 20:07:05 31° NNW 20:13:56 13° NE visible
21 Jan 6.6 22:06:05 10° NW 22:08:45 17° NNW 22:08:45 17° NNW visible
22 Jan 7.3 02:36:31 17° ENE 02:36:31 17° ENE 02:39:07 10° ENE visible
22 Jan 5.8 04:31:19 56° NNW 04:33:41 62° NNE 04:45:40 10° ESE visible
22 Jan 5.6 06:26:09 12° WNW 06:39:06 69° SSW 06:48:52 10° SE visible
22 Jan 6.1 20:59:24 10° NW 21:04:43 20° N 21:06:32 19° N visible
23 Jan 6.4 03:29:03 42° ENE 03:29:03 42° ENE 03:37:59 10° E visible
23 Jan 5.6 05:23:51 36° WNW 05:31:14 89° SSW 05:42:38 10° ESE visible
23 Jan 5.7 19:52:58 10° WNW 19:57:33 22° NNW 20:03:35 10° NE visible
23 Jan 6.6 21:57:39 10° NW 21:59:07 13° NNW 21:59:07 13° NNW visible
24 Jan 7.3 02:26:46 17° ENE 02:26:46 17° ENE 02:29:24 10° E visible
24 Jan 5.6 04:21:35 70° N 04:22:57 74° NNE 04:35:43 10° ESE visible
24 Jan 5.8 06:16:23 15° W 06:28:28 57° SSW 06:38:50 10° SE visible
24 Jan 6.2 20:51:15 10° NW 20:55:15 15° N 20:56:54 14° N visible
25 Jan 6.4 03:19:18 44° ENE 03:19:18 44° ENE 03:28:02 10° E visible
25 Jan 5.7 05:14:06 41° WNW 05:20:27 76° SSW 05:32:31 10° ESE visible
25 Jan 5.9 19:44:51 10° NW 19:48:08 15° N 19:52:03 10° NNE visible
25 Jan 6.7 21:49:16 10° NNW 21:49:30 10° NNW 21:49:30 10° NNW visible
26 Jan 7.4 02:16:58 17° E 02:16:58 17° E 02:19:27 10° E visible
26 Jan 5.6 04:11:47 85° N 04:12:06 86° NNE 04:25:31 10° ESE visible
26 Jan 6.1 06:06:36 16° W 06:17:50 49° SSW 06:28:39 10° SE visible
26 Jan 6.3 20:43:46 10° NNW 20:45:53 11° N 20:47:16 11° NNE visible
